Theta_e
289 291 291 289 289 290 288 292 290 293 295 301 306 309 314 316 317 317 318 319 320 320 321 323 322 323 322 321 322 323 328 328 328 326 326 325 325 323 325 325 323 327 327 326
286 291 291 287 290 290 290 292 295 296 297 307 309 313 315 316 316 316 318 320 320 321 323 323 323 320 320 320 322 326 327 328 329 329 328 327 326 327 321 324 326 326 327 324
283 290 289 284 288 290 292 294 296 293 299 310 310 311 312 313 316 317 319 320 321 322 323 322 320 319 318 320 322 327 327 329 330 328 326 327 327 322 323 324 327 325 324 320
285 287 277 289 301 297 294 297 304 302 307 310 310 312 313 314 314 317 319 320 321 322 322 321 319 318 319 320 320 324 327 327 326 326 324 325 326 324 324 322 322 322 324 320
283 283 287 291 297 296 295 300 307 305 307 310 312 312 310 316 317 317 319 320 321 324 323 319 319 319 319 318 319 320 325 323 324 325 323 326 326 323 323 323 323 322 324 320
286 281 281 291 296 300 301 295 308 308 307 309 310 303 305 312 316 318 318 321 324 324 322 319 319 318 318 316 317 318 325 324 325 325 326 326 327 323 323 324 325 328 325 322
285 284 287 295 296 299 293 295 309 309 309 309 305 306 310 313 315 319 318 320 325 324 321 319 319 318 316 316 316 320 326 326 325 325 327 326 325 324 325 325 325 324 323 321
287 284 282 295 297 296 300 305 309 308 310 309 310 312 313 315 316 318 318 320 325 323 321 321 319 319 317 315 318 322 324 326 327 327 330 328 324 324 325 324 322 321 321 320
288 287 296 298 299 304 306 305 306 307 309 310 311 311 313 315 318 318 320 319 326 323 320 320 319 318 317 316 319 322 323 326 326 326 326 325 324 323 324 323 323 322 321 320
291 293 295 299 301 303 305 305 306 307 308 309 309 311 313 316 317 318 320 321 325 323 320 319 319 319 319 319 320 322 325 325 325 326 324 324 324 324 324 323 323 323 322 320
291 296 297 300 301 302 304 306 305 306 308 309 310 311 312 313 316 315 317 321 324 323 321 320 320 318 321 319 319 322 325 325 323 326 325 323 319 316 321 319 326 326 325 323
289 297 296 298 302 304 302 304 306 306 307 309 310 310 312 312 314 315 318 322 323 325 322 321 321 320 321 320 319 322 325 325 324 325 326 324 315 311 298 298 302 309 310 319
296 299 300 301 302 304 303 305 306 307 307 306 308 310 310 310 312 313 317 318 320 324 325 322 321 320 321 321 320 322 323 324 323 322 324 322 319 315 310 308 301 297 301 307
300 300 298 300 299 304 305 305 307 308 309 307 307 309 309 309 311 312 316 317 319 324 326 323 322 321 321 321 320 322 321 310 322 320 322 321 321 321 317 313 311 310 303 304
301 302 300 301 302 303 305 304 303 305 307 307 308 308 308 307 308 312 315 317 317 320 328 327 323 321 322 321 320 323 321 320 320 320 321 320 322 320 321 317 316 313 307 304
301 301 302 300 301 301 302 302 302 303 304 305 306 307 309 310 310 312 314 316 315 315 323 327 325 326 323 321 320 323 321 312 314 319 317 320 319 322 320 320 319 314 311 313
296 297 299 301 301 300 300 302 303 303 303 303 304 306 308 308 310 311 311 314 315 320 321 323 319 327 330 320 321 322 322 315 313 318 317 315 318 315 319 322 321 319 315 313
300 301 302 301 300 300 301 302 302 303 302 304 305 305 306 306 307 308 310 312 315 316 320 321 316 324 322 316 318 321 323 321 317 319 317 316 314 315 315 316 322 321 319 313
301 302 302 303 302 301 301 301 301 302 301 302 302 302 303 304 305 307 309 311 311 311 316 318 307 315 317 309 306 319 321 321 319 319 318 311 312 315 315 315 315 319 322 318
302 303 302 303 303 302 301 302 301 300 301 301 300 300 300 302 304 305 307 309 307 307 308 312 314 315 314 310 302 319 323 318 320 319 319 317 317 314 314 308 315 315 315 316
302 303 302 302 302 303 303 303 301 299 300 301 299 299 299 301 303 303 304 303 304 305 303 305 311 309 313 307 310 317 324 323 322 319 319 317 316 315 315 314 315 316 314 314
301 301 302 302 300 302 302 302 301 301 299 299 299 299 299 298 300 300 303 301 302 297 299 308 310 297 299 297 312 314 317 324 324 322 320 319 318 317 317 316 315 316 315 314
300 303 303 301 300 301 301 302 302 300 299 299 298 297 297 297 298 295 295 299 300 297 299 307 296 291 291 307 311 311 315 321 322 324 323 322 319 319 319 318 318 318 315 316
302 302 302 302 303 301 299 300 301 302 301 300 299 298 297 295 295 297 298 296 292 292 297 298 296 292 294 310 311 310 310 315 317 320 322 309 323 324 320 319 317 320 320 310
302 302 301 300 298 298 300 300 299 299 298 298 298 298 298 298 295 295 296 296 292 293 296 293 291 293 302 303 307 308 311 314 317 317 321 322 323 323 324 322 322 322 321 321
302 300 301 300 299 298 298 298 297 297 296 295 297 297 297 297 296 295 295 293 295 292 292 294 296 296 296 298 300 301 304 308 309 313 316 321 323 322 322 324 322 321 321 321
303 301 302 301 300 299 298 298 297 295 295 295 294 295 295 295 295 294 292 293 293 292 292 291 292 291 292 293 295 295 295 298 295 304 307 310 311 314 319 323 323 323 323 323
Wind_Speed
15 18 12 16 19 20 16 15 12 16 8 12 6 9 15 17 19 18 17 17 15 14 12 12 10 10 9 7 7 8 9 10 8 7 7 6 5 4 3 5 3 5 5 6
13 14 11 18 20 19 20 23 18 20 19 7 1 9 11 16 18 17 18 18 15 15 14 13 12 11 8 8 7 12 11 9 8 9 7 6 5 5 4 3 6 5 5 8
5 9 9 8 16 18 14 19 22 19 16 8 8 12 9 9 15 17 18 17 16 15 15 12 12 10 9 8 8 12 11 10 9 8 6 5 5 6 5 5 5 5 7 7
5 2 5 6 10 16 17 15 19 10 19 8 12 15 11 9 11 9 20 16 14 13 12 13 9 10 8 9 8 11 8 10 10 10 7 6 6 6 4 3 4 4 6 6
3 3 13 13 11 12 7 8 19 20 22 8 1 18 10 8 5 6 6 9 14 14 13 11 13 10 11 8 8 7 10 10 10 10 7 7 6 6 4 4 3 3 5 6
3 5 7 6 21 23 19 6 12 10 10 8 5 7 2 4 3 6 6 3 13 16 15 14 12 10 10 8 8 7 13 10 11 9 9 9 7 6 3 3 4 5 6 5
3 2 3 13 26 30 6 1 6 7 6 9 6 2 3 4 5 4 4 4 14 17 15 14 14 11 9 8 8 7 12 12 9 8 8 7 7 4 4 5 6 6 7 5
2 1 2 15 17 8 6 10 8 8 7 6 5 5 5 5 7 5 6 6 14 14 13 13 14 11 9 9 8 7 11 11 10 10 8 7 8 4 6 6 7 6 6 5
6 5 4 13 16 12 7 9 8 6 7 7 8 8 7 7 8 5 6 4 10 14 13 11 13 11 9 9 7 7 11 13 13 10 8 6 7 7 5 5 6 6 5 5
1 6 6 11 14 13 13 15 15 12 8 9 8 9 11 13 12 13 6 3 5 15 14 12 12 10 9 8 7 8 12 14 9 12 8 6 5 5 6 5 5 5 6 6
2 5 4 9 16 16 15 14 11 12 8 12 12 11 13 14 14 14 13 6 4 11 13 13 13 9 8 9 7 8 14 12 8 10 10 6 3 1 4 4 9 7 7 8
2 8 5 4 7 16 15 9 8 10 10 12 14 13 16 14 11 12 12 15 5 12 13 14 14 12 8 10 8 10 13 10 8 9 8 6 6 4 10 8 6 11 13 9
4 7 6 5 8 13 13 14 15 13 13 10 11 12 15 13 13 13 13 15 16 11 15 14 14 13 10 10 8 11 12 11 8 8 8 6 6 6 6 5 9 6 12 15
6 6 8 10 11 14 16 19 12 10 10 8 9 10 10 9 10 14 12 13 14 13 6 15 14 14 13 8 9 11 9 13 9 6 7 6 6 8 6 8 5 1 8 2
7 7 4 4 5 9 12 16 18 16 15 14 13 12 11 9 9 11 13 15 15 13 14 4 14 14 13 12 12 13 10 8 7 7 7 9 6 6 8 6 7 6 3 7
4 6 4 8 10 12 12 15 12 14 15 15 13 13 13 12 8 9 10 11 13 12 13 13 12 6 13 13 13 11 12 14 9 7 6 8 6 8 7 9 8 8 7 7
6 7 6 8 7 8 8 9 9 9 11 12 13 14 13 13 12 11 9 7 10 8 10 8 10 10 2 6 13 11 10 8 13 6 6 6 8 6 7 9 10 9 9 10
6 6 6 6 5 6 6 9 9 11 10 12 13 12 13 13 12 13 14 12 8 10 8 8 12 10 14 14 9 10 11 11 8 10 7 6 6 8 7 8 11 11 9 10
10 7 6 7 7 7 6 5 5 8 11 10 10 10 11 12 14 13 13 13 10 7 9 7 12 13 12 13 11 5 7 12 12 9 8 9 6 8 9 8 8 11 12 11
10 4 11 11 7 4 5 5 6 6 8 10 10 11 11 11 13 13 13 12 14 12 16 16 8 8 11 14 14 6 5 5 9 10 10 9 10 6 8 10 10 8 9 11
8 3 10 9 6 6 6 6 6 7 9 10 12 12 11 10 11 12 11 9 16 16 18 15 7 6 6 8 8 9 9 5 2 8 11 10 9 8 9 10 10 9 7 9
5 6 9 7 7 4 5 4 6 6 6 8 10 11 11 11 12 11 10 12 11 18 14 10 10 12 7 10 5 6 8 9 6 4 5 10 12 10 9 10 11 10 9 8
3 5 6 5 6 4 5 4 5 6 7 7 9 11 11 9 9 10 11 14 11 18 10 9 13 13 13 5 5 6 7 6 9 5 4 3 5 9 10 10 12 11 10 10
5 6 2 1 5 7 5 5 7 8 6 6 7 10 9 9 9 8 9 10 14 16 11 8 13 16 13 11 10 6 5 5 5 5 5 7 4 7 5 6 7 10 11 9
4 5 2 5 6 4 6 6 6 7 7 6 8 8 11 8 8 10 10 11 14 14 12 13 13 16 12 12 12 14 12 6 5 5 5 4 4 5 6 6 10 9 6 7
6 4 4 7 5 4 4 5 5 5 4 4 6 6 7 8 8 9 10 12 13 14 12 12 12 12 12 12 12 14 13 15 15 14 12 7 5 5 4 8 7 2 1 2
3 9 5 5 5 5 4 5 6 5 4 4 5 5 5 6 9 10 11 11 11 12 11 11 11 12 12 12 12 12 11 12 14 13 13 12 12 12 12 7 5 5 5 5
Wind_Direction
277 283 287 271 282 297 310 292 223 239 254 228 195 124 135 132 132 136 137 137 145 143 142 144 143 146 155 154 167 148 137 148 144 134 144 150 180 189 191 196 184 155 119 105
290 278 219 271 280 283 277 278 280 240 244 299 15 101 127 139 141 138 139 146 148 145 146 151 147 152 152 151 163 136 148 141 137 135 144 155 177 199 190 154 138 131 98 100
263 108 147 266 255 262 261 273 269 237 222 137 67 36 67 118 133 142 144 152 150 151 152 149 148 147 150 150 130 145 152 147 141 145 151 160 182 154 138 134 129 116 115 110
285 311 148 246 328 218 229 268 292 241 118 108 129 107 63 53 71 134 153 159 152 150 146 147 138 141 132 136 140 151 155 152 132 148 161 172 143 140 122 111 124 117 112 110
255 311 321 309 8 357 335 6 2 88 90 296 194 90 41 37 62 58 57 164 152 146 145 138 139 140 132 137 148 149 148 145 139 149 153 137 130 143 142 130 129 141 127 122
326 191 243 16 331 331 318 67 322 48 64 45 4 59 344 358 37 30 14 62 147 141 142 136 144 134 131 150 160 179 151 149 147 150 136 150 147 152 164 139 152 139 122 120
228 293 356 333 328 307 106 69 280 26 39 75 69 172 228 56 45 36 326 359 147 142 147 145 145 133 139 153 174 185 149 144 146 144 128 125 133 147 130 120 111 102 115 122
154 6 271 353 317 47 328 302 278 35 20 48 51 51 53 39 44 27 338 55 147 138 144 144 144 136 143 159 194 163 138 134 127 132 135 139 144 132 125 128 118 118 118 101
348 56 24 327 348 330 286 261 357 43 15 21 39 21 7 20 20 17 328 21 151 142 142 145 146 145 141 187 173 151 132 134 141 136 137 144 133 132 137 137 139 141 134 133
256 357 5 340 322 311 342 17 14 353 19 21 31 19 20 30 23 10 340 282 150 148 148 146 152 148 152 174 169 140 133 145 141 137 141 151 147 151 146 149 156 152 152 147
308 7 3 3 320 333 339 7 6 356 5 26 22 24 27 29 14 359 342 333 152 163 155 153 154 155 153 172 158 136 146 151 146 146 153 164 112 176 170 199 180 168 167 162
345 299 235 295 341 314 332 345 356 335 26 23 27 18 27 21 4 347 349 2 11 166 158 158 156 164 161 173 149 148 148 158 160 151 163 156 141 92 29 22 192 164 159 159
225 309 301 1 340 2 357 345 344 1 32 22 13 26 25 9 359 346 358 7 6 351 164 162 159 168 170 172 149 159 153 158 161 155 157 157 154 143 129 0 50 41 170 163
326 345 0 9 358 0 5 1 341 23 31 21 18 28 15 4 346 347 358 5 356 357 278 164 167 171 174 166 152 161 152 159 162 159 168 161 168 167 156 154 152 159 41 143
9 353 19 343 3 9 9 11 13 20 20 18 20 16 360 351 346 337 358 1 2 350 1 7 178 177 176 172 159 162 158 169 164 174 171 183 175 166 170 165 161 150 103 56
283 314 24 34 25 17 13 14 12 11 8 5 5 359 349 337 343 357 350 359 352 351 13 16 17 324 177 176 161 163 172 168 170 173 179 192 186 185 169 175 165 163 165 166
46 15 40 39 41 42 23 23 10 13 3 358 349 348 349 345 349 344 341 345 342 360 16 7 357 347 289 175 170 167 173 165 179 167 182 178 196 186 183 173 181 174 184 175
71 120 77 58 37 58 33 31 14 10 0 357 355 353 346 346 355 349 344 335 356 350 7 1 3 11 44 19 342 181 172 179 178 188 192 194 189 190 189 180 185 187 182 180
76 85 85 99 66 50 46 30 24 32 20 2 356 353 348 350 347 338 335 333 333 360 335 19 33 29 24 6 4 333 195 179 188 189 188 199 198 198 194 191 185 186 189 173
125 118 92 81 62 55 8 354 58 49 38 18 13 6 358 352 349 344 337 343 17 4 350 351 54 33 13 1 357 331 354 223 193 201 199 200 205 201 206 195 196 191 177 176
90 122 125 112 90 30 355 343 62 63 42 21 17 14 9 1 351 348 350 8 356 357 346 351 39 15 7 347 350 345 340 327 288 206 201 206 209 199 201 203 201 202 188 178
70 55 82 92 98 79 324 37 57 74 57 37 24 16 12 10 6 6 8 13 342 353 337 342 360 350 337 340 340 327 328 332 318 357 240 214 207 208 202 201 202 202 201 183
91 99 60 92 117 154 57 41 63 67 75 36 27 19 15 11 10 2 0 354 353 339 331 339 337 346 357 323 328 323 312 336 344 348 8 4 278 245 225 206 206 201 200 200
122 111 150 70 134 111 82 37 52 45 67 53 44 30 14 11 13 6 353 351 350 345 338 347 359 355 3 4 342 313 307 299 314 316 331 330 345 339 251 221 226 224 215 200
165 152 189 101 79 74 102 71 64 42 30 33 36 30 21 20 22 352 357 1 359 359 357 354 1 2 7 360 348 355 334 301 296 309 305 326 320 326 340 282 234 225 228 233
157 160 146 115 119 92 57 88 88 57 40 16 48 28 21 10 12 4 4 1 5 5 6 359 7 4 360 0 359 358 357 12 7 358 347 329 328 329 336 352 351 331 215 196
173 120 134 116 102 125 109 106 97 83 41 15 58 28 18 14 18 15 8 8 8 8 8 6 4 6 360 359 1 1 357 3 357 354 359 356 0 357 352 332 308 337 344 303